Location: Cisewo
(53.3833°N, 14.9000°E)
Time: 10:22:49
(UTC+00:00)

NANOSAT C BR1 - Visible Passes

Search period start: 21 September 2021 00:00
Search period end: 01 October 2021 00:00
Orbit: 588 x 604 km, 98.0° (Epoch: 20 September)

Date Brightness Start Highest point End Pass type
(mag) Time Alt. Az. Time Alt. Az. Time Alt. Az.
21 Sep ? 01:13:31 10° N 01:16:09 36° N 01:16:09 36° N visible
21 Sep ? 02:51:01 10° NNW 02:52:34 12° NW 02:52:48 12° NW visible
21 Sep ? 23:48:27 10° NE 23:49:24 14° NE 23:49:24 14° NE visible
22 Sep ? 01:23:29 10° N 01:26:03 34° N 01:26:03 34° N visible
22 Sep ? 23:58:08 10° NE 23:59:19 16° NE 23:59:19 16° NE visible
23 Sep ? 01:33:27 10° N 01:35:58 31° NNW 01:35:58 31° NNW visible
24 Sep ? 00:07:53 10° NNE 00:09:13 18° NE 00:09:13 18° NE visible
24 Sep ? 01:43:27 10° N 01:45:53 28° NNW 01:45:53 28° NNW visible
25 Sep ? 00:17:40 10° NNE 00:19:08 19° NE 00:19:08 19° NE visible
25 Sep ? 01:53:28 10° N 01:55:47 25° NNW 01:55:47 25° NNW visible
26 Sep ? 00:27:30 10° NNE 00:29:02 21° NE 00:29:02 21° NE visible
26 Sep ? 02:03:31 10° N 02:05:42 22° NNW 02:05:42 22° NNW visible
27 Sep ? 00:37:20 10° NNE 00:38:57 22° NNE 00:38:57 22° NNE visible
27 Sep ? 02:13:35 10° N 02:15:36 19° NW 02:15:36 19° NW visible
28 Sep ? 00:47:12 10° NNE 00:48:51 23° NNE 00:48:51 23° NNE visible
28 Sep ? 02:23:43 10° NNW 02:25:30 17° NW 02:25:30 17° NW visible
29 Sep ? 00:57:06 10° NNE 00:58:45 23° NNE 00:58:45 23° NNE visible
29 Sep ? 02:33:53 10° NNW 02:35:24 15° NW 02:35:24 15° NW visible
30 Sep ? 01:07:01 10° NNE 01:08:39 23° N 01:08:39 23° N visible
30 Sep ? 02:44:09 10° NNW 02:45:18 13° NW 02:45:18 13° NW visible
